Location: Avoca
(45.7167°N, 74.7000°W)
Time: 19:24:39
(UTC+00:00)

STARLINK-5229 - Pass Details

Date: 04 December 2022
Orbit: 539 x 540 km, 53.2° (Epoch: 03 February)

Event Time Altitude Azimuth Distance (km) Brightness Sun altitude
Rises 23:02:25 0° 206° (SSW) 2,691 ? -18.0°
Reaches altitude 10° 23:04:50 10° 195° (SSW) 1,804 ? -18.4°
Enters shadow 23:08:22 29° 135° (SE) 1,024 ? -19.0°
